This demonstration page uses our WeatherBlox Daily Observations layout. Learn more.

Left ArrowRight Arrow

Hourly Observations for October 29, 2020

Temp ( °F °C ) Dew Point ( °F °C ) Humidity (%) Winds ( mph kmh ) Pressure ( in mb ) Visibility ( mi km ) Precip ( " mm )
12:04 am 00:04 Cloudy with Light Rain 40 4.4 37 2.8 89 89 NE 10 17 29.87 1012 10 16 0.00 0.00
12:53 am 00:53 Cloudy with Light Rain 40 4.4 36 2.2 86 86 NNE 15 24 29.84 1011 8 13 0.05 1.27
1:00 am 01:00 Cloudy with Light Rain 40 4.4 36 2.2 86 86 NNE 13 20 29.87 1012 10 16 0.00 0.00
1:53 am 01:53 Cloudy with Light Rain 40 4.4 35 1.7 83 83 N 10 17 29.85 1011 10 16 0.06 1.52
2:53 am 02:53 Cloudy 41 5 35 1.7 79 79 NNE 9 15 29.88 1012 10 16 0.01 0.25
3:53 am 03:53 Cloudy with Light Rain 42 5.6 37 2.8 82 82 NNE 9 15 29.92 1013 10 16 0.00 0.00
4:53 am 04:53 Cloudy with Light Rain 42 5.6 39 3.9 89 89 N 12 19 29.93 1014 7 11 0.04 1.02
5:33 am 05:33 Cloudy with Rain 42 5.6 40 4.4 92 92 N 15 24 29.96 1015 5 8 0.02 0.51
5:53 am 05:53 Cloudy with Light Rain 42 5.6 39 3.9 89 89 N 16 26 29.96 1014 7 11 0.06 1.52
6:53 am 06:53 Cloudy 42 5.6 37 2.8 82 82 N 21 33 29.98 1015 10 16 0.04 1.02
7:53 am 07:53 Mostly Cloudy 40 4.4 35 1.7 83 83 N 17 28 30.04 1017 10 16 0.00 0.00
8:53 am 08:53 Mostly Cloudy 39 3.9 34 1.1 82 82 N 18 30 30.10 1019 10 16 0.00 0.00
9:53 am 09:53 Partly Cloudy 40 4.4 33 0.6 77 77 N 18 30 30.14 1021 10 16 0.00 0.00
10:53 am 10:53 Mostly Sunny 43 6.1 32 0 65 65 N 20 31 30.16 1022 10 16 0.00 0.00
11:53 am 11:53 Mostly Sunny 47 8.3 30 -1.1 52 52 N 18 30 30.17 1022 10 16 0.00 0.00
12:53 pm 12:53 Mostly Sunny 49 9.4 29 -1.7 46 46 N 21 33 30.18 1022 10 16 0.00 0.00
1:53 pm 13:53 Mostly Sunny 51 10.6 29 -1.7 43 43 N 14 22 30.16 1022 10 16 0.00 0.00
2:53 pm 14:53 Partly Cloudy 52 11.1 30 -1.1 43 43 N 16 26 30.16 1021 10 16 0.00 0.00
3:53 pm 15:53 Mostly Sunny 53 11.7 30 -1.1 41 41 NNW 14 22 30.15 1021 10 16 0.00 0.00
4:53 pm 16:53 Mostly Sunny 53 11.7 31 -0.6 43 43 NW 15 24 30.17 1022 10 16 0.00 0.00
5:53 pm 17:53 Mostly Sunny 52 11.1 31 -0.6 45 45 N 9 15 30.17 1022 10 16 0.00 0.00
6:53 pm 18:53 Mostly Clear 47 8.3 30 -1.1 52 52 NNW 6 9 30.18 1022 10 16 0.00 0.00
7:53 pm 19:53 Clear 43 6.1 31 -0.6 63 63 NW 5 7 30.20 1023 10 16 0.00 0.00
8:53 pm 20:53 Clear 38 3.3 31 -0.6 76 76 Calm 30.23 1024 10 16 0.00 0.00
9:53 pm 21:53 Clear 38 3.3 31 -0.6 76 76 Calm 30.22 1023 10 16 0.00 0.00
10:53 pm 22:53 Clear 37 2.8 32 0 82 82 Calm 30.22 1024 10 16 0.00 0.00
11:08 pm 23:08 Clear with Mist and Fog 35 1.7 31 -0.6 85 85 Calm 30.27 1025 2 3 0.00 0.00
11:15 pm 23:15 Clear with Mist and Fog 35 1.7 32 0 89 89 S 3 6 30.27 1025 5 8 0.00 0.00
11:53 pm 23:53 Clear with Mist and Fog 35 1.7 32 0 89 89 SSW 5 7 30.22 1024 5 8 0.00 0.00

Powered by AerisWeather